Home   Weather   Rotterdam   Past weeks

Flag for Netherlands Past Weather in Rotterdam, Netherlands — Yesterday and Last 2 Weeks

Now
34 °F

Clear.


Feels Like: 31 °F
Forecast: 25 / 36 °F
Wind: 3 mph from East

Location: Amsterdam Schiphol Airport

Current Time: Jan 19, 2017 at 6:25:27 pm

Latest Report: Jan 19, 2017 at 5:55 pm


Visibility: 10 mi

Pressure: 30.63 "Hg

Humidity: 56%

Dew Point: 19 °F

Location of RotterdamLocation

Past Weather in Rotterdam — Graph

°F

Rotterdam Temperature Yesterday

Maximum temperature yesterday: 28 °F (at 2:25 pm)
Minimum temperature yesterday: 21 °F (at 1:25 am)
Average temperature yesterday: 26 °F

High & Low Weather Summary for the Past Weeks

 TemperatureHumidityPressure
High50 °F (Jan 11, 11:55 am)100% (Jan 7, 4:25 am)30.74 "Hg (Jan 7, 4:25 am)
Low21 °F (Jan 6, 8:25 am)39% (Jan 19, 2:25 pm)29.09 "Hg (Jan 12, 11:25 pm)
Average35 °F87%30.19 "Hg
* Reported Jan 4 5:25 pm — Jan 19 5:25 pm, Rotterdam, Weather by CustomWeather, © 2017

Note: Actual official high and low records may vary slightly from our data, if they occured in-between our weather recording intervals... More about our weather records

Advertising

Rotterdam Weather History for the Previous 24 Hours

Scroll right to see more
 ConditionsComfort  
Time TempWeatherWind HumidityBarometerVisibility
5:25 pm
Thu, Jan 19
34 °FClear.3 mph48%30.63 "Hg10 mi
4:55 pm36 °FSunny.5 mph44%30.63 "Hg10 mi
4:25 pm37 °FSunny.5 mph52%30.63 "Hg10 mi
3:55 pm39 °FPassing clouds.3 mph48%30.63 "HgN/A
3:25 pm39 °FSunny.5 mph42%30.63 "Hg10 mi
2:55 pm41 °FSunny.3 mph45%30.63 "Hg10 mi
2:25 pm41 °FPassing clouds.3 mph39%30.63 "HgN/A
1:55 pm39 °FPassing clouds.5 mph45%30.63 "HgN/A
1:25 pm39 °FPassing clouds.5 mph48%30.66 "HgN/A
12:55 pm36 °FPassing clouds.3 mph70%30.66 "HgN/A
12:25 pm36 °FSunny.2 mph75%30.66 "Hg10 mi
11:55 am34 °FClear.2 mph75%30.66 "Hg5 mi
11:25 am32 °FClear.3 mph80%30.66 "Hg5 mi
10:55 am32 °FClear.3 mph80%30.66 "Hg5 mi
10:25 am30 °FClear.1 mph93%30.69 "Hg4 mi
9:55 am28 °FClear.3 mph93%30.69 "Hg4 mi
9:25 am27 °FClear.3 mph93%30.69 "Hg4 mi
8:55 am25 °FClear.2 mph100%30.66 "Hg4 mi
8:25 am25 °FClear.2 mph100%30.66 "Hg4 mi
7:55 am25 °FClear.3 mph100%30.66 "Hg4 mi
7:25 am25 °FIce fog.3 mph93%30.66 "Hg2 mi
6:55 am27 °FFog.3 mph93%30.66 "Hg4 mi
6:25 am23 °FLight fog.3 mph93%30.66 "Hg4 mi
5:55 am25 °FLight fog.2 mph93%30.66 "Hg4 mi
5:25 am21 °FLight fog.2 mph100%30.66 "Hg4 mi
4:55 am23 °FCold.1 mph100%30.66 "Hg3 mi
4:25 am23 °FIce fog.1 mph93%30.66 "Hg3 mi
3:55 am25 °FIce fog.1 mph93%30.66 "Hg3 mi
3:25 am25 °FIce fog.1 mph100%30.66 "Hg2 mi
2:55 am25 °FIce fog.2 mph93%30.66 "Hg2 mi
2:25 am25 °FIce fog.2 mph100%30.66 "Hg2 mi
1:55 am25 °FIce fog.2 mph93%30.66 "Hg2 mi
1:25 am27 °FIce fog.3 mph93%30.66 "Hg2 mi
12:55 am28 °FIce fog.2 mph93%30.66 "Hg2 mi
12:25 am28 °FIce fog.2 mph93%30.69 "Hg2 mi
11:55 pm
Wed, Jan 18
28 °FIce fog.2 mph93%30.69 "Hg2 mi
11:25 pm28 °FIce fog.3 mph93%30.69 "Hg3 mi
10:55 pm28 °FIce fog.2 mph93%30.69 "Hg2 mi
10:25 pm28 °FIce fog.1 mph93%30.69 "Hg2 mi
9:55 pm28 °FIce fog.1 mph100%30.69 "Hg2 mi
9:25 pm28 °FIce fog.1 mph100%30.69 "Hg2 mi
8:55 pm28 °FIce fog.1 mph100%30.69 "Hg2 mi
8:25 pm28 °FIce fog.1 mph100%30.69 "Hg2 mi
7:55 pm28 °FIce fog.2 mph93%30.69 "Hg2 mi
7:25 pm28 °FIce fog.1 mph93%30.69 "Hg2 mi
6:55 pm28 °FIce fog.1 mph93%30.69 "Hg2 mi
6:25 pm28 °FIce fog.3 mph93%30.69 "Hg2 mi
Weather by CustomWeather, © 2017

See weather overviewHow to use our weather pages